Wind_Speed
34 35 37 39 41 41 40 40 40 40 40 41 40 40 40 40 41 40 40 40 40 41 41 41 41 40 40 40 39 39 40 41 43 43 40 32 20 15 19 27 31 31 30 30 31 35 37 38 38 40 42 42 42 42 41 38 36 37 40 42 43 44 44 44 45 47 48 47 45 42 41 42 43 42 41 41 39 38 39 39 39 38 38 39 40
36 37 38 39 38 37 35 36 37 38 39 40 40 40 40 40 41 41 40 40 40 41 41 41 40 39 39 38 38 38 37 38 39 39 36 26 15 16 21 26 30 30 30 30 30 32 34 36 38 39 39 40 41 42 41 39 37 37 40 43 45 45 45 45 46 47 48 48 45 41 42 44 44 43 41 39 39 39 40 39 38 37 38 39 40
37 37 38 38 36 35 35 36 36 38 38 38 38 39 40 41 41 41 41 40 40 40 40 40 39 38 37 37 37 36 35 35 36 35 31 22 15 18 23 27 30 31 31 32 33 33 34 35 37 38 38 37 38 39 39 38 39 39 40 42 43 42 43 44 45 46 46 46 46 44 45 46 45 44 41 39 40 40 40 38 37 36 38 39 40
37 37 38 38 38 38 38 39 39 39 39 39 38 38 39 40 41 41 41 40 40 40 40 39 38 37 36 35 35 35 33 33 33 32 27 20 17 20 24 28 30 31 32 34 35 34 33 34 36 37 38 39 39 39 39 40 41 40 41 43 43 42 42 43 44 45 45 46 47 46 46 47 46 44 42 41 41 40 39 38 37 38 39 40 41
37 38 39 39 39 40 40 40 40 39 39 39 38 38 39 40 41 41 41 40 40 40 39 38 37 36 35 34 34 33 32 31 30 28 24 20 20 22 24 28 31 33 34 36 36 35 32 32 35 38 40 40 41 41 41 43 43 43 43 45 45 44 44 45 45 47 48 49 48 45 45 48 47 45 44 42 42 42 41 40 40 41 42 43 43
38 39 40 41 41 42 42 41 41 40 39 39 39 38 38 39 40 40 40 40 39 39 38 38 37 35 34 34 33 32 31 30 28 26 23 21 22 23 24 27 31 34 36 37 37 36 34 33 34 38 41 43 44 43 43 44 44 44 45 47 48 48 48 48 48 49 50 50 47 44 46 50 51 48 46 45 46 47 47 46 46 46 46 45 43
40 41 42 43 43 43 43 43 42 41 41 41 40 39 39 38 39 39 40 40 39 38 38 37 36 35 33 33 32 31 30 29 28 25 22 22 25 25 26 29 31 33 36 38 39 39 39 37 35 37 39 42 44 46 46 46 44 43 43 44 46 48 49 50 51 51 50 48 46 46 48 51 53 52 50 50 50 51 51 50 49 49 47 45 44
43 44 44 45 45 45 44 44 43 43 44 44 44 43 42 41 41 41 41 40 40 39 38 37 35 34 33 32 31 30 30 29 27 25 22 22 27 28 28 30 33 34 36 39 41 42 42 42 39 38 40 41 43 45 46 46 46 46 45 45 46 46 47 49 50 50 49 48 48 49 50 52 55 56 54 53 53 53 52 50 48 48 47 46 46
45 46 47 47 47 46 46 45 44 45 46 47 46 46 45 44 44 44 43 42 41 39 38 37 35 34 33 32 31 30 30 29 27 25 23 22 27 31 31 31 33 36 39 40 41 43 44 44 43 41 42 43 44 45 45 45 47 48 48 48 48 47 47 48 49 49 50 51 52 53 54 55 57 57 55 55 56 54 52 51 49 48 48 48 48
47 48 48 48 48 48 47 46 46 47 48 49 48 48 48 47 46 45 45 44 42 40 39 37 36 34 33 33 32 30 30 30 28 26 24 23 26 32 34 34 34 36 41 42 42 43 45 46 46 45 44 45 45 44 44 45 47 47 48 49 50 50 50 50 50 51 52 53 54 55 55 56 56 56 56 57 56 53 53 53 52 51 50 50 50
47 49 50 50 50 49 48 47 47 48 49 50 50 51 50 49 47 46 45 44 43 41 39 38 36 34 33 33 33 31 31 31 29 27 26 25 26 31 35 38 37 37 41 43 44 45 47 47 47 47 46 47 46 45 44 46 47 46 47 49 51 52 53 53 53 54 54 54 54 54 54 55 56 55 56 58 57 54 55 56 55 54 53 52 52
49 50 51 51 51 50 49 48 48 49 49 50 52 52 50 48 47 45 44 43 42 41 39 38 37 35 34 33 33 33 32 31 30 29 27 26 26 30 35 39 40 40 41 44 45 47 49 50 50 49 49 49 49 48 47 48 49 48 47 49 50 51 52 53 53 54 55 54 54 54 54 55 56 54 55 59 58 55 55 56 56 57 56 56 56
51 52 53 53 51 50 49 48 49 49 49 50 51 50 47 46 44 43 42 41 41 40 39 38 37 35 34 34 34 34 33 32 32 30 29 28 27 29 34 39 42 43 43 44 46 48 50 52 52 52 51 51 52 52 52 52 53 53 53 54 54 54 56 56 56 55 55 55 55 55 55 56 55 53 56 60 59 56 56 56 57 58 59 60 60
53 54 54 53 52 51 50 49 49 49 48 49 48 45 43 43 43 42 41 41 40 40 39 38 38 36 35 34 35 35 35 34 33 32 31 30 29 29 33 38 43 46 47 47 47 49 52 54 55 54 53 53 53 54 54 54 53 53 55 57 58 57 58 61 61 59 57 56 55 55 55 54 53 54 58 60 60 59 59 58 59 60 61 62 62
55 55 54 54 53 52 51 50 49 48 49 49 47 44 43 44 44 42 42 42 42 42 40 39 38 38 36 35 36 36 36 35 34 33 33 32 31 31 33 37 42 46 49 51 51 51 52 55 57 57 57 56 55 55 55 56 56 54 54 55 56 55 55 57 59 59 57 56 56 55 55 54 55 57 60 61 61 62 62 62 62 62 63 63 65
54 54 55 55 54 53 51 49 48 49 50 50 48 47 47 47 45 44 43 43 43 43 42 40 39 39 38 37 36 37 37 36 35 35 34 34 33 32 33 36 41 46 49 51 52 53 54 55 57 59 60 60 59 57 56 57 58 57 56 56 55 55 55 55 55 56 56 56 56 56 55 56 58 60 61 63 65 66 66 65 65 64 65 66 67
54 55 56 55 54 52 50 49 49 50 50 50 49 49 49 48 45 44 43 42 42 41 41 41 40 39 39 38 37 37 38 38 37 36 36 36 35 34 34 35 39 44 48 51 52 53 55 56 57 59 61 62 62 61 60 59 58 58 58 58 57 58 58 58 58 57 56 56 56 55 55 58 60 61 63 66 68 68 67 66 67 67 68 69 70
56 56 55 54 53 52 50 50 50 51 51 51 50 49 48 46 44 43 43 43 43 42 41 41 41 41 40 39 38 38 39 39 39 38 38 38 37 36 35 36 37 41 46 50 53 53 55 57 58 58 60 61 63 63 62 62 62 61 60 59 59 59 59 59 59 59 58 57 56 55 57 59 61 62 65 67 69 70 69 69 70 71 72 72 74
56 56 54 53 52 51 51 52 52 52 53 52 50 48 48 46 44 43 44 45 46 45 44 43 43 42 42 41 40 39 40 40 40 40 39 39 39 38 37 37 38 39 42 47 52 54 55 57 58 58 58 59 60 61 63 63 63 63 63 62 61 61 60 60 59 58 58 58 58 59 60 61 62 64 66 67 69 71 71 71 72 73 74 75 77
56 55 53 52 52 52 53 53 54 55 54 52 50 49 48 46 45 46 47 47 48 48 47 46 45 44 44 43 42 41 41 41 41 41 40 40 40 40 39 38 39 40 41 44 48 53 55 57 58 59 60 60 59 60 62 64 63 63 63 63 63 62 62 62 62 61 61 61 62 63 64 64 65 66 67 69 69 70 70 71 72 72 73 76 78
56 54 53 52 53 53 54 55 56 55 53 51 50 50 49 48 49 49 49 49 50 50 49 48 47 45 45 44 44 43 42 42 42 42 42 41 41 41 40 40 40 41 42 43 45 49 54 57 58 59 60 61 62 62 63 64 64 64 65 64 64 63 63 64 64 64 63 63 64 65 66 66 67 68 69 71 71 70 70 71 72 73 74 76 78
54 54 53 54 54 55 56 57 55 53 51 50 50 50 50 51 51 51 51 51 51 50 50 48 47 46 45 45 45 44 44 43 43 43 43 42 42 42 41 41 41 41 43 44 44 46 50 55 59 60 59 60 61 63 64 65 65 65 66 67 67 67 67 66 66 66 65 65 65 66 66 66 66 67 68 70 70 70 70 71 73 74 76 78 80
54 54 55 55 56 56 57 56 53 51 50 50 51 51 52 53 53 52 52 51 50 49 48 46 46 46 45 45 46 46 45 45 45 44 44 44 44 43 43 42 42 42 43 44 45 46 47 51 56 60 61 61 61 62 63 64 65 65 66 67 69 70 71 70 70 69 68 68 67 68 67 67 66 66 67 69 69 70 71 73 75 77 78 80 83
55 55 56 56 57 57 56 54 52 51 51 52 52 53 53 54 53 53 52 51 49 46 45 44 44 45 46 46 47 47 47 46 46 46 45 45 45 45 45 44 44 43 43 44 45 46 47 48 52 57 61 63 63 63 64 64 65 65 66 67 69 71 72 73 73 72 72 71 70 70 70 70 70 70 71 72 72 73 75 76 78 80 82 83 85
56 56 57 57 57 56 54 52 52 52 53 53 54 54 54 54 53 53 51 49 46 44 43 43 44 45 46 46 47 47 47 47 47 47 47 47 47 47 47 46 46 45 45 45 45 46 47 49 50 54 58 62 65 66 66 66 66 66 67 67 68 70 71 73 74 74 75 74 74 74 74 74 75 76 76 77 78 79 80 81 82 83 85 86 88
57 57 58 57 56 54 53 53 53 53 53 53 53 53 53 53 53 52 49 47 45 44 43 43 44 45 46 46 47 48 48 48 48 48 48 48 49 49 49 49 48 48 47 47 47 47 48 49 51 53 56 60 63 66 67 68 69 69 69 69 70 70 71 72 73 74 75 75 76 76 76 77 77 78 79 80 81 82 83 84 85 86 88 89 90
58 57 57 56 55 55 55 54 54 53 52 52 52 53 53 53 51 49 47 45 44 44 44 44 45 45 46 47 47 48 49 49 49 50 50 51 51 51 51 50 50 50 50 50 50 50 50 51 52 54 56 60 63 66 67 68 70 71 71 71 72 72 72 73 74 74 75 76 77 77 78 78 79 80 81 83 84 85 86 87 88 89 90 92 93
57 56 56 55 55 55 54 53 52 52 52 52 53 53 53 51 49 47 46 45 45 45 45 45 46 46 47 48 49 49 50 51 51 51 52 52 52 52 52 52 52 52 53 53 53 53 54 54 54 55 57 60 63 67 69 70 71 71 73 73 74 74 75 75 76 76 77 78 79 80 81 82 83 84 85 86 87 88 89 90 91 92 93 94 95
56 55 55 54 53 52 51 51 51 52 53 53 53 52 51 49 47 46 46 46 46 46 47 47 48 48 49 50 50 51 51 52 52 53 53 53 54 54 54 54 54 55 55 56 57 57 57 57 57 57 58 60 63 67 71 73 74 74 74 75 76 77 78 78 79 80 80 81 82 83 84 85 86 87 89 90 91 92 93 94 95 96 97 98 99
53 52 52 51 50 50 50 51 52 53 53 52 51 49 48 47 47 46 47 47 48 48 49 49 50 51 51 52 52 53 53 53 54 54 55 55 55 56 56 57 57 58 58 59 60 60 60 60 60 60 60 61 63 66 69 73 76 78 79 78 78 79 79 80 82 83 84 85 86 86 87 88 89 90 91 93 94 95 96 97 98 99 100 101 102
49 49 49 49 50 51 52 53 52 52 50 49 48 48 47 47 47 48 48 49 49 50 50 51 51 52 53 53 54 54 55 55 56 56 57 58 58 59 59 60 60 60 60 60 60 60 60 60 60 61 61 62 63 65 68 71 75 78 81 83 84 84 83 84 84 85 86 87 88 89 90 91 92 93 95 96 97 99 100 100 101 102 103 104 105
48 49 50 51 52 52 51 50 49 48 48 48 48 48 48 48 48 49 49 50 50 51 51 52 53 54 54 55 56 56 57 58 58 59 60 60 61 61 61 61 61 60 60 60 59 59 58 59 59 60 61 62 64 65 67 69 72 75 78 82 85 87 88 89 89 89 90 90 91 92 93 94 95 96 97 99 100 102 103 104 105 105 106 107 108
51 51 52 51 50 49 48 47 47 47 48 48 48 49 49 49 49 50 51 51 52 53 53 54 55 56 57 57 58 59 60 60 60 61 61 61 60 60 60 59 59 59 59 59 58 58 58 58 59 60 61 62 64 65 67 68 70 72 75 77 81 84 87 90 92 93 94 95 96 96 97 98 99 100 101 102 104 105 107 108 109 110 110 111 112
51 50 49 48 47 46 46 47 47 48 48 49 49 50 50 50 51 52 52 53 54 55 56 56 57 58 59 60 60 60 60 60 60 59 59 58 58 58 58 58 58 59 59 59 59 58 58 59 59 60 61 62 64 65 67 68 69 71 73 75 77 80 82 85 88 91 94 96 98 100 101 102 103 104 105 106 108 109 110 112 113 114 115 115 116
47 47 47 47 47 47 48 48 49 49 50 50 51 51 52 52 53 53 54 55 56 57 57 58 59 59 59 59 59 59 58 58 57 57 57 57 57 56 56 56 55 55 55 55 55 55 56 57 58 59 61 62 63 65 66 68 69 71 72 74 76 77 79 81 84 86 89 92 95 97 100 102 104 106 107 109 111 112 114 115 117 118 119 120 120
45 46 47 48 49 49 50 50 51 52 52 52 53 53 53 54 54 55 56 57 57 58 58 58 58 58 57 57 57 56 56 56 56 55 55 54 53 52 51 51 50 50 51 51 51 51 51 52 53 55 56 58 60 62 64 66 68 70 72 73 75 77 79 80 82 84 85 88 90 92 94 96 98 101 103 104 107 108 110 112 114 115 117 118 119
47 47 48 49 51 52 52 53 53 53 54 54 54 55 55 55 56 56 56 56 56 56 56 56 56 55 55 55 55 54 54 53 52 50 49 49 48 48 48 48 48 48 48 48 48 48 48 48 48 49 51 52 54 56 58 61 63 65 67 70 72 74 76 78 80 82 83 85 87 89 91 93 94 96 98 100 101 103 104 106 107 108 109 109 110
49 49 50 51 52 53 54 54 54 54 55 55 55 54 54 54 54 54 54 54 54 54 54 54 54 54 53 52 51 50 49 47 46 46 45 46 46 46 46 46 46 46 46 46 45 45 45 45 45 46 47 48 49 50 52 54 56 58 60 62 64 66 69 71 73 75 77 79 81 82 84 86 88 90 91 93 94 96 97 98 99 99 100 100 101
51 51 52 52 53 54 54 54 54 53 53 53 52 52 52 52 52 52 52 53 53 53 53 52 51 50 49 48 47 46 45 45 45 44 44 45 44 44 44 43 43 42 42 42 42 41 42 42 42 43 43 44 45 46 47 49 51 53 54 56 58 60 61 63 65 67 69 70 72 74 76 77 79 81 82 84 85 87 88 89 90 90 91 92 92
53 53 53 53 53 53 53 52 51 51 50 50 50 51 51 51 51 52 52 52 51 51 50 49 47 46 45 45 45 45 45 44 44 43 43 42 41 40 39 39 38 38 38 38 38 38 38 39 39 40 41 42 43 44 45 46 48 49 51 52 54 56 57 59 60 62 63 65 66 67 69 71 72 74 75 77 78 79 80 81 81 82 83 84 84
54 53 53 52 52 51 50 49 49 49 50 50 50 51 51 51 51 51 50 49 48 47 46 45 44 44 44 44 44 43 43 42 41 39 38 37 36 36 35 35 35 35 35 35 35 36 37 37 38 39 39 40 41 42 43 44 46 47 49 50 52 53 54 56 57 58 60 61 62 63 65 66 67 69 70 72 73 74 75 75 75 75 76 77 77
53 53 52 51 50 49 49 49 49 50 51 51 51 51 51 50 49 48 47 46 45 44 44 44 44 43 43 42 41 40 39 37 36 35 34 33 33 33 33 33 33 33 33 33 34 34 35 36 37 38 38 39 39 41 42 43 44 46 47 48 50 51 52 53 54 55 57 58 59 60 61 62 63 65 66 67 68 70 71 71 70 70 70 71 71
52 51 50 50 50 50 50 50 51 51 51 51 50 49 49 48 47 45 45 44 44 44 43 42 42 41 40 38 37 35 34 33 32 32 32 31 31 31 31 31 31 31 32 32 33 34 34 35 36 37 39 39 40 41 42 43 44 45 46 47 48 49 51 52 52 53 54 55 56 57 58 59 60 61 62 63 64 66 67 68 67 66 66 66 67
50 50 50 50 51 51 51 51 51 50 49 49 48 47 47 46 46 45 44 43 43 42 41 40 38 37 36 34 33 32 31 31 30 30 30 30 30 30 30 30 30 31 32 33 33 34 35 36 37 38 39 40 41 42 43 44 45 46 47 48 49 49 50 51 51 52 53 53 54 55 56 57 58 59 60 61 62 63 64 65 65 64 63 62 62
50 50 51 51 51 51 50 49 48 48 47 46 46 45 45 45 44 43 42 41 40 39 38 36 34 33 32 31 31 30 30 29 29 29 29 29 29 30 30 31 32 32 33 34 35 36 37 37 38 39 40 41 42 43 44 45 46 47 48 49 49 50 50 51 51 51 52 52 53 54 54 55 56 57 58 59 60 61 61 62 62 62 61 60 59
51 50 50 50 49 48 48 47 46 46 45 44 44 43 42 42 41 40 39 37 36 35 34 32 31 30 30 30 29 29 29 29 29 29 29 30 30 31 31 32 33 33 34 35 36 38 39 39 40 41 41 42 43 44 46 47 48 49 49 50 50 50 50 50 50 50 51 51 51 52 53 54 55 56 57 58 58 59 59 60 60 60 59 58 56
49 48 48 47 46 45 45 44 43 43 42 41 41 40 39 38 37 36 34 33 32 32 31 30 30 29 29 29 29 29 29 29 29 30 30 31 32 32 32 33 34 35 36 37 38 39 40 41 42 42 43 43 45 46 47 48 49 50 50 50 50 50 50 50 50 50 50 50 50 51 52 53 54 55 56 56 56 57 57 57 57 57 57 56 54
47 46 45 44 43 42 41 41 40 39 38 38 37 36 35 34 33 32 31 30 29 29 30 30 30 30 29 29 29 29 29 30 30 31 32 32 33 34 34 35 36 36 37 39 40 41 41 42 43 43 44 45 46 47 48 49 50 50 51 51 51 51 50 50 50 49 49 50 51 51 52 53 54 54 54 55 55 55 55 55 55 56 55 55 53
43 42 41 40 39 38 37 37 36 35 35 34 33 32 31 30 30 29 28 28 28 29 29 30 30 29 29 30 30 30 31 31 32 32 33 34 35 35 36 37 37 38 40 41 41 42 43 43 44 45 46 47 48 49 50 50 51 51 51 52 52 51 51 50 50 50 50 51 51 52 52 53 53 54 54 54 54 54 54 54 54 54 54 53 52
39 38 37 36 35 34 33 33 32 31 30 30 29 29 29 29 29 29 28 29 29 29 30 30 30 30 30 31 31 32 32 33 34 34 35 35 36 37 38 39 40 41 42 43 43 44 44 45 46 47 48 49 50 50 51 51 51 52 52 51 51 50 50 50 50 50 51 51 52 52 52 53 53 54 54 54 54 54 54 53 53 53 53 53 52
35 34 33 32 31 30 29 29 28 28 27 27 27 27 28 28 29 30 30 30 30 29 29 30 30 31 31 32 33 34 35 35 36 37 38 38 39 40 41 42 43 43 44 45 45 46 47 47 48 49 50 50 51 51 52 52 52 52 52 51 50 50 49 50 50 50 51 51 52 52 53 54 54 55 55 55 54 54 54 53 53 53 53 53 52
Wind_Direction
276 278 280 282 284 286 287 286 285 284 284 286 287 287 287 286 285 284 283 281 280 279 279 280 282 285 288 292 295 299 302 306 311 313 315 313 297 252 220 210 211 217 221 226 231 226 221 222 227 231 232 233 232 231 232 235 238 241 244 247 249 252 254 255 256 258 261 263 266 268 268 267 269 272 273 276 280 284 286 287 290 292 293 293 293
275 277 280 283 285 286 289 290 289 288 289 290 289 287 286 286 285 285 284 283 281 280 280 280 282 285 288 291 294 298 302 306 311 314 314 310 281 234 219 213 213 218 221 220 223 227 227 227 229 232 235 237 236 235 235 236 237 239 242 245 247 251 255 258 260 262 265 266 266 266 266 268 270 272 274 277 280 282 284 287 289 291 291 292 292
274 277 281 284 285 286 291 293 292 292 293 294 294 291 287 286 285 285 285 284 283 282 281 282 283 285 287 290 293 296 301 306 311 313 312 302 266 230 221 218 218 220 222 220 219 223 228 229 230 231 233 235 236 237 238 239 240 241 242 243 247 251 255 258 260 263 266 268 267 265 267 270 272 273 276 278 280 281 284 287 288 289 289 290 289
274 279 283 285 285 287 291 293 293 294 294 296 296 294 290 287 285 285 285 284 283 283 282 282 283 284 286 288 291 295 299 304 310 312 307 289 258 236 226 222 221 220 220 222 222 224 228 231 232 232 232 232 234 236 238 240 242 243 243 245 248 252 254 256 258 260 263 266 269 271 273 275 275 276 279 280 281 282 283 285 286 287 287 287 285
276 281 284 284 285 288 291 293 294 295 296 297 297 295 291 287 286 285 284 284 284 284 283 282 283 284 285 287 289 293 297 302 307 309 300 277 253 241 233 225 221 218 219 223 225 225 227 231 234 234 233 233 234 236 238 240 242 244 245 247 248 249 251 254 256 259 261 266 271 276 278 278 277 278 279 279 279 279 281 283 285 285 285 286 285
278 283 283 284 285 288 291 292 292 294 296 297 296 294 291 287 286 285 285 284 284 284 284 283 282 282 283 285 287 290 294 298 304 306 293 269 250 241 235 227 222 220 221 224 224 223 226 231 234 235 236 236 236 238 239 241 243 246 248 249 249 248 248 251 255 260 264 267 270 273 275 276 277 278 278 278 279 280 281 282 283 284 285 285 282
280 283 283 283 285 288 290 290 291 292 294 295 294 294 293 290 288 287 285 285 285 285 285 283 282 282 282 283 284 287 291 294 299 302 289 264 250 243 235 228 226 226 229 230 229 227 227 231 234 235 236 238 240 241 243 244 245 247 249 251 251 251 250 253 258 262 265 267 268 269 270 273 276 278 279 280 280 279 280 282 283 282 282 280 277
280 282 282 283 285 287 289 289 290 290 292 294 293 292 293 294 293 291 288 286 285 285 285 284 282 281 280 281 282 284 288 291 293 297 289 262 248 245 241 234 230 229 231 235 236 234 231 231 232 233 232 234 238 242 244 245 246 248 251 252 254 255 256 258 261 263 264 264 264 266 267 269 273 276 279 279 277 277 280 281 280 278 276 274 272
279 280 281 282 284 287 288 288 288 288 290 293 293 293 294 294 294 294 292 288 285 284 284 284 282 281 279 278 280 281 284 287 288 291 289 268 247 243 245 243 238 231 229 234 237 236 234 233 231 231 230 231 235 238 242 244 246 249 252 254 256 257 258 259 259 261 261 262 262 264 265 267 270 273 275 275 274 276 278 276 274 273 273 272 271
277 279 280 281 283 285 286 286 286 287 289 292 294 294 294 294 293 293 291 289 287 285 285 284 282 280 278 277 278 279 280 283 284 285 285 274 252 241 241 244 244 236 231 233 236 234 233 234 233 232 233 234 236 238 241 243 245 247 250 253 254 255 256 255 256 257 259 260 261 263 265 267 269 271 272 272 272 273 272 272 272 272 272 272 272
277 278 279 280 282 283 284 284 285 287 290 292 294 294 294 292 291 290 289 287 287 286 285 283 282 279 278 276 276 277 277 278 280 281 281 277 260 245 239 240 243 241 236 235 235 232 232 233 233 234 236 237 238 240 241 243 244 245 247 249 250 251 253 253 253 255 257 260 262 264 266 267 268 270 270 269 269 270 271 272 273 274 273 274 274
277 277 278 280 281 281 282 283 285 287 290 292 293 293 292 290 288 287 286 286 286 286 284 282 280 277 276 275 274 274 274 275 277 278 278 277 267 252 242 238 238 240 241 239 236 233 231 232 233 235 237 239 239 240 241 242 242 241 243 245 244 245 248 251 254 257 260 262 264 265 266 267 269 270 269 268 269 271 272 273 274 275 276 276 276
276 276 278 279 280 280 281 283 285 287 289 292 293 292 289 287 286 286 286 285 285 285 283 280 278 276 274 273 272 271 272 272 274 275 275 275 270 258 247 241 238 237 239 241 240 235 232 232 234 237 239 241 242 242 242 243 244 243 245 247 248 248 250 254 259 262 265 266 267 268 269 270 271 270 268 268 271 273 273 272 273 274 275 276 277
275 276 277 278 279 280 280 282 284 285 288 292 293 291 289 288 288 287 287 285 284 284 283 279 276 275 272 271 270 270 270 270 271 272 273 274 271 263 252 244 241 238 237 238 240 239 236 235 237 239 242 243 245 246 247 247 248 247 248 250 252 254 256 258 260 262 264 266 268 269 269 270 270 268 266 269 272 273 272 272 272 272 273 275 276
275 276 277 278 280 280 280 281 283 284 287 291 291 289 290 291 290 289 288 286 284 283 282 279 276 274 271 269 269 268 269 269 268 270 272 273 272 268 258 249 243 241 240 238 238 239 239 239 239 241 243 244 246 248 249 250 250 250 249 250 252 254 257 259 261 261 262 263 264 267 268 269 268 266 267 270 271 270 271 271 272 273 273 273 274
274 275 277 279 280 280 281 281 282 285 288 290 289 288 289 290 290 289 288 288 286 283 281 278 275 273 271 269 268 268 268 268 268 269 271 271 270 268 264 256 248 244 243 241 240 239 240 240 241 242 244 245 246 247 248 249 251 251 251 251 252 252 254 256 259 260 261 261 262 264 266 266 265 266 268 269 269 269 270 271 272 272 272 272 273
274 276 278 279 279 280 280 281 282 286 289 290 288 287 288 288 287 288 288 289 289 287 282 278 274 272 270 268 267 267 267 268 269 270 270 270 270 268 266 262 255 248 245 244 243 241 240 240 241 242 244 245 247 247 247 248 250 251 252 253 254 255 255 256 258 260 261 262 263 263 263 263 264 266 267 268 270 271 272 272 273 273 273 273 274
275 276 277 278 278 279 279 280 283 286 289 289 287 286 286 286 285 286 288 287 288 288 285 280 275 272 270 268 266 266 267 268 269 270 269 270 270 269 266 264 260 254 249 246 245 244 243 242 241 242 243 245 246 247 248 249 250 251 252 253 254 256 257 257 258 259 261 262 262 262 261 262 263 265 266 268 270 271 272 273 273 274 274 275 274
275 275 275 276 277 277 278 280 283 286 287 287 286 284 284 284 283 284 286 286 285 286 285 282 277 274 271 269 267 266 267 267 268 268 268 269 270 269 268 265 262 259 254 250 248 246 246 245 244 243 244 245 246 247 248 249 250 251 253 254 254 255 256 257 258 258 259 259 260 260 260 262 263 264 265 267 269 271 272 273 273 273 274 274 273
274 274 275 275 276 276 277 279 282 285 285 284 282 282 282 282 282 283 285 285 284 283 283 281 278 275 273 271 270 268 267 267 267 268 268 269 269 269 268 266 264 262 258 254 250 248 247 246 245 244 244 246 247 248 248 248 249 250 251 253 254 255 256 257 257 258 258 259 260 261 261 262 264 265 266 267 268 269 271 271 271 271 272 271 272
274 274 274 274 275 275 277 280 282 283 282 280 280 280 280 280 283 285 285 284 284 283 282 280 278 275 273 272 271 270 269 268 268 268 269 269 269 268 268 267 265 263 261 258 254 251 249 248 247 246 245 246 248 249 250 250 250 249 249 250 251 252 254 255 257 258 259 260 261 262 264 265 266 266 266 267 267 267 268 268 269 269 269 270 271
272 273 273 273 274 276 278 281 281 280 278 277 278 278 279 281 284 285 285 285 285 284 282 279 276 273 272 272 271 271 270 270 270 269 269 269 269 268 268 267 266 264 262 260 258 255 252 250 249 248 247 247 249 250 252 253 253 252 252 251 250 251 252 254 256 258 259 260 261 262 264 265 265 265 265 266 266 266 266 266 266 266 267 268 269
270 271 272 273 274 277 279 279 278 276 275 276 277 278 280 282 284 285 285 285 285 283 281 277 273 271 271 271 271 271 271 271 271 271 270 270 270 269 269 268 267 265 263 261 259 258 256 254 252 250 249 249 249 251 252 253 254 254 254 253 252 252 253 254 256 258 259 260 261 262 262 262 262 262 262 263 263 263 263 263 264 264 265 265 267
269 270 271 273 275 277 277 276 275 275 276 277 278 279 281 283 284 284 285 285 283 281 278 275 272 271 271 271 272 272 272 272 272 273 272 272 272 272 271 270 268 266 264 263 261 260 259 257 255 253 251 250 250 250 251 253 253 254 254 255 255 254 255 255 256 258 259 260 260 260 260 260 259 259 259 259 260 260 261 262 263 264 265 266 267
269 270 272 274 275 275 274 274 275 276 277 278 279 280 281 283 284 285 285 283 281 278 276 274 272 271 271 272 272 273 273 273 274 274 274 274 274 273 273 272 271 268 266 263 262 261 261 261 258 255 253 252 252 252 252 252 253 253 253 254 255 255 256 256 257 258 258 259 260 260 261 261 261 261 261 261 261 261 262 262 263 264 265 266 267
269 271 272 273 273 273 274 275 276 277 277 278 279 280 282 283 284 284 283 281 279 277 276 274 273 272 272 272 273 273 274 274 274 275 275 274 274 274 274 274 273 271 269 266 264 263 262 262 261 258 254 251 251 252 253 253 253 253 254 254 254 255 255 256 256 257 258 259 259 260 261 262 262 263 263 263 263 263 263 263 264 264 265 266 267
270 271 272 272 273 274 275 276 276 277 277 278 280 281 282 283 283 283 281 280 278 277 276 275 274 273 273 273 273 274 274 275 275 275 276 276 276 276 276 275 274 273 272 270 268 266 265 263 263 261 258 253 249 249 250 252 253 254 254 254 255 255 255 256 256 257 257 258 258 259 260 260 261 262 262 263 263 263 264 264 264 265 266 267 268
269 270 271 272 274 274 275 276 277 278 279 280 281 282 282 283 282 281 280 280 279 278 277 277 276 275 275 275 274 274 275 275 275 276 276 277 277 277 276 276 276 275 274 273 272 270 268 266 264 263 261 257 253 249 247 248 250 252 253 254 255 255 255 256 256 257 257 258 258 259 259 260 260 261 262 262 263 264 264 265 266 266 267 268 268
270 271 272 273 274 275 276 277 278 279 280 281 282 282 282 281 281 280 280 280 280 279 279 278 278 277 277 277 276 276 276 276 276 276 276 277 277 277 277 277 276 276 276 275 275 274 272 270 268 265 262 260 256 253 250 248 248 249 250 252 253 255 255 256 256 257 258 258 259 259 260 260 261 262 262 263 264 264 265 266 267 267 268 269 269
272 272 273 274 275 276 278 279 280 281 282 282 282 281 281 280 280 280 280 280 280 280 279 279 279 279 279 278 278 278 278 278 278 278 278 278 278 278 278 277 277 277 276 276 275 275 274 272 270 268 265 262 259 256 253 251 250 249 249 250 251 252 254 255 256 257 258 258 259 260 260 261 262 262 263 264 264 265 266 267 267 268 269 270 270
273 274 275 276 277 279 279 280 281 282 282 281 281 281 281 281 281 281 280 280 280 280 280 280 280 280 280 280 280 280 280 280 280 280 280 280 280 280 280 279 279 278 277 276 275 274 273 272 270 269 267 265 263 260 257 255 253 252 251 251 251 251 252 253 254 255 257 258 259 259 260 261 262 262 263 264 264 265 266 267 267 268 269 270 270
275 276 278 279 279 280 280 280 281 281 281 281 281 281 281 281 281 281 281 281 281 281 281 281 281 281 281 281 282 282 282 282 282 282 282 282 282 282 281 281 280 279 278 277 276 275 273 272 270 269 267 266 265 263 261 259 258 256 255 254 254 253 254 254 254 255 256 257 257 258 259 260 261 262 263 263 264 265 266 266 267 268 268 269 269
277 278 278 279 279 279 279 280 280 280 281 281 281 281 281 281 281 282 282 282 282 282 282 283 283 283 283 283 283 283 283 283 283 283 283 283 282 282 281 281 280 280 279 278 278 276 275 273 271 270 268 267 266 265 264 263 262 260 259 258 258 257 257 257 257 257 257 258 258 259 259 260 261 261 262 263 264 265 266 266 267 268 268 269 269
277 277 278 278 278 279 279 280 280 280 280 280 280 281 281 282 282 282 283 283 283 284 284 284 284 284 284 284 284 284 284 284 284 283 283 283 282 282 282 281 281 280 280 279 279 277 275 274 272 270 269 268 267 266 266 265 265 264 263 262 262 261 260 260 260 260 260 260 260 261 261 262 262 263 263 264 265 265 266 267 268 269 269 270 270
277 278 279 280 280 280 280 280 280 280 280 280 281 281 281 282 282 283 283 283 283 284 284 284 284 284 284 284 284 284 284 284 284 284 284 283 283 283 282 282 281 281 281 280 279 278 276 274 273 271 270 269 268 268 267 267 266 266 266 265 265 265 264 264 264 263 263 263 263 263 263 264 264 265 265 266 266 267 268 268 269 270 271 271 272
277 278 279 280 280 280 280 280 280 280 280 280 281 281 282 282 283 283 283 284 284 284 284 284 284 284 284 284 284 284 285 285 285 285 284 284 283 283 282 282 282 282 282 281 281 280 278 276 274 273 272 271 270 269 268 268 267 267 267 267 267 267 267 267 267 267 267 267 267 267 267 267 267 268 268 268 269 269 270 270 271 271 272 273 273
277 277 278 278 278 278 279 279 279 280 280 281 281 282 282 283 283 283 284 284 284 284 284 284 284 284 285 285 285 285 285 285 285 285 284 284 284 283 283 283 283 282 282 282 282 281 280 279 277 275 274 273 272 271 271 270 270 269 269 268 268 268 269 269 269 269 269 269 270 270 270 270 271 271 271 272 272 272 273 273 273 274 274 274 275
277 277 277 277 278 278 279 279 279 280 280 281 282 282 283 283 283 284 284 284 285 285 285 285 285 285 286 286 286 286 285 285 285 285 284 284 284 284 284 284 283 283 283 282 282 281 280 279 278 278 277 276 275 274 273 273 272 272 272 271 271 271 271 271 271 271 271 271 271 271 271 272 272 272 272 273 273 274 274 275 275 275 276 276 276
278 279 279 279 279 279 280 280 280 281 282 282 282 283 283 283 284 284 285 285 285 285 286 286 286 286 286 286 286 286 286 286 286 286 285 285 285 284 284 284 284 284 283 283 282 282 281 281 280 280 279 279 278 277 277 276 276 275 275 274 274 274 274 274 273 273 273 273 273 273 274 274 274 274 274 274 274 275 275 276 276 277 277 278 278
281 281 281 281 281 281 281 282 282 283 283 283 284 284 284 285 285 285 285 286 286 286 286 287 287 287 287 287 287 287 287 287 287 286 286 285 285 285 285 285 286 286 286 286 286 285 285 285 284 284 283 283 282 282 281 281 280 280 279 279 279 278 278 278 278 278 278 278 278 278 278 278 278 278 278 279 278 279 279 279 279 279 280 280 280
282 282 281 281 281 282 282 282 283 284 284 284 285 285 285 285 285 286 286 286 286 286 286 287 287 287 287 287 288 288 288 288 287 287 287 287 287 288 288 289 289 289 289 289 289 289 289 288 288 287 286 286 285 285 285 284 284 283 283 283 283 282 282 282 282 282 282 282 282 282 282 282 282 282 282 282 282 282 282 282 283 283 283 283 283
282 282 282 282 282 282 283 283 284 284 284 284 285 285 285 285 285 285 286 286 286 286 286 286 287 287 287 288 288 288 287 287 287 287 288 288 289 290 291 291 291 292 291 291 291 291 290 290 290 289 288 288 287 287 287 286 286 286 285 285 285 285 285 285 285 285 285 285 285 285 285 285 285 285 285 285 286 286 286 286 286 286 286 286 286
282 282 282 283 283 283 284 284 284 284 285 285 285 285 285 285 285 285 285 286 286 286 286 286 287 287 287 286 285 284 284 285 286 287 289 290 290 291 291 292 292 292 292 292 292 292 292 292 292 292 292 291 291 290 289 289 289 289 288 289 289 289 289 289 289 289 289 288 288 288 288 288 288 288 288 289 289 289 290 290 289 289 289 289 289
282 282 283 283 283 284 284 284 284 284 284 284 284 285 285 285 285 286 286 286 286 286 286 287 287 286 285 284 284 284 285 286 287 288 289 290 290 291 291 291 292 292 293 294 294 295 295 295 295 295 295 295 295 294 293 293 292 292 293 293 293 293 293 293 292 292 292 292 292 291 291 291 291 291 291 292 292 292 292 292 292 292 292 291 291
282 282 283 283 283 283 283 283 283 283 283 283 283 283 284 284 285 285 285 286 286 286 286 286 285 284 283 284 285 286 287 288 288 289 289 289 290 291 292 292 294 295 296 297 298 299 299 299 299 298 298 298 298 298 298 297 297 297 297 297 297 296 296 296 296 296 295 295 295 294 294 294 295 295 295 295 295 295 295 295 295 295 295 294 293
282 282 282 282 282 282 282 282 282 282 282 282 282 282 282 282 283 284 284 284 284 284 283 282 282 282 283 284 285 286 287 287 288 288 289 289 290 292 293 295 297 299 301 302 303 304 304 304 303 302 301 300 300 300 300 300 300 300 300 300 300 300 299 299 299 299 298 298 297 297 297 298 298 298 299 299 299 298 298 298 298 298 298 297 296
281 282 281 281 282 282 281 281 281 281 281 281 281 281 281 281 282 282 282 281 281 280 281 281 282 282 283 284 284 284 285 286 287 288 289 290 292 294 296 299 301 302 304 305 305 306 306 305 305 303 302 301 301 301 301 301 302 302 303 303 303 302 302 302 301 301 301 300 300 300 300 301 301 301 301 301 301 301 301 301 301 300 300 300 299
281 281 281 281 281 280 280 280 280 279 279 279 279 280 280 279 279 279 279 279 279 280 281 282 283 284 284 284 284 284 285 286 287 289 291 293 295 297 299 300 301 302 303 304 305 305 306 305 305 304 303 303 303 303 303 304 304 304 305 305 305 304 304 304 303 304 304 304 303 303 303 303 303 303 304 304 304 304 304 304 304 303 303 303 302
280 280 280 279 279 278 278 278 278 278 279 279 279 279 278 278 277 277 278 279 280 280 281 282 282 283 284 284 284 285 287 288 289 290 292 294 295 297 298 299 301 302 303 304 305 305 306 306 305 305 305 305 305 305 305 305 305 306 306 306 306 306 306 306 306 306 306 306 305 305 305 306 306 306 307 307 308 308 307 307 307 307 306 306 306
279 278 278 278 277 277 276 276 276 276 277 277 278 279 279 280 280 281 281 281 281 282 282 282 283 283 284 284 285 287 288 289 291 292 293 294 295 297 298 300 301 302 303 304 305 306 306 306 306 306 305 305 305 305 305 306 306 306 306 307 307 307 307 307 307 307 307 307 307 308 308 308 309 310 310 311 311 311 311 311 310 310 310 310 309
276 276 276 276 276 276 276 276 276 276 276 277 278 279 280 281 282 283 283 283 282 282 283 284 285 285 286 287 288 289 290 292 293 294 296 297 298 299 300 301 302 303 305 306 306 307 307 306 306 306 306 306 306 306 306 306 306 307 307 307 307 307 307 307 307 308 308 309 310 310 311 312 313 313 313 314 314 314 314 314 313 313 313 313 312
Height
10642 10642 10642 10642 10642 10641 10640 10639 10638 10637 10635 10634 10633 10632 10631 10630 10629 10628 10628 10628 10627 10627 10627 10626 10626 10626 10626 10625 10624 10623 10622 10619 10615 10612 10608 10605 10603 10603 10605 10608 10612 10615 10618 10620 10621 10624 10628 10631 10633 10635 10637 10638 10640 10641 10643 10645 10647 10648 10650 10650 10649 10649 10648 10649 10649 10648 10648 10649 10652 10653 10652 10651 10652 10653 10654 10654 10654 10654 10654 10653 10652 10652 10651 10650 10649
10637 10637 10637 10637 10637 10636 10635 10634 10633 10632 10631 10630 10629 10628 10626 10625 10624 10623 10623 10623 10622 10622 10622 10622 10622 10622 10622 10621 10620 10619 10618 10616 10613 10609 10606 10604 10603 10604 10607 10609 10612 10614 10617 10618 10620 10622 10625 10628 10630 10632 10633 10635 10636 10637 10639 10640 10642 10644 10645 10645 10645 10645 10644 10644 10644 10643 10643 10644 10647 10648 10647 10646 10647 10648 10649 10650 10650 10649 10649 10648 10648 10647 10646 10645 10644
10632 10632 10631 10632 10632 10631 10631 10630 10629 10628 10627 10625 10624 10623 10621 10620 10620 10619 10618 10618 10617 10617 10617 10617 10618 10618 10617 10616 10615 10615 10614 10612 10610 10607 10604 10603 10603 10605 10607 10608 10611 10612 10614 10615 10616 10618 10621 10624 10626 10628 10630 10631 10632 10633 10635 10636 10638 10639 10640 10641 10641 10640 10640 10640 10640 10639 10639 10639 10640 10642 10642 10641 10642 10643 10644 10645 10644 10643 10643 10643 10643 10642 10641 10641 10640
10627 10626 10626 10626 10626 10626 10626 10625 10624 10623 10622 10620 10619 10618 10617 10616 10615 10614 10613 10613 10612 10612 10612 10612 10613 10613 10613 10612 10611 10611 10610 10609 10607 10604 10602 10602 10602 10603 10605 10607 10608 10610 10611 10612 10613 10615 10618 10621 10623 10625 10626 10627 10628 10629 10631 10632 10634 10635 10635 10636 10636 10636 10636 10636 10636 10636 10635 10634 10634 10636 10637 10636 10636 10637 10638 10639 10638 10638 10638 10638 10637 10637 10636 10636 10635
10621 10621 10621 10621 10620 10620 10620 10620 10619 10618 10617 10616 10614 10613 10612 10611 10610 10609 10609 10608 10607 10607 10607 10607 10608 10608 10608 10607 10607 10606 10606 10605 10604 10602 10600 10600 10600 10601 10602 10604 10606 10607 10608 10609 10610 10613 10615 10617 10619 10620 10622 10623 10624 10625 10626 10627 10629 10630 10630 10631 10632 10632 10632 10632 10632 10631 10631 10630 10629 10630 10630 10628 10629 10631 10633 10633 10633 10632 10632 10632 10632 10632 10631 10630 10630
10616 10616 10616 10615 10615 10615 10615 10615 10614 10613 10612 10611 10610 10609 10608 10607 10605 10604 10604 10603 10603 10602 10602 10602 10603 10603 10603 10603 10602 10602 10601 10601 10600 10599 10597 10597 10597 10599 10600 10602 10603 10605 10606 10606 10608 10610 10612 10614 10615 10616 10617 10618 10619 10620 10621 10622 10624 10625 10626 10626 10627 10627 10628 10628 10627 10626 10626 10626 10625 10625 10625 10622 10621 10624 10627 10627 10627 10626 10626 10626 10626 10626 10625 10625 10625
10610 10610 10610 10610 10610 10610 10610 10609 10609 10608 10607 10607 10606 10605 10604 10602 10601 10600 10599 10598 10598 10598 10598 10597 10598 10598 10598 10598 10597 10597 10597 10596 10596 10595 10594 10594 10594 10595 10597 10599 10600 10602 10602 10603 10604 10606 10608 10609 10611 10612 10613 10613 10614 10614 10615 10617 10619 10620 10621 10622 10622 10622 10623 10623 10622 10622 10622 10621 10620 10621 10621 10617 10615 10617 10620 10621 10620 10618 10619 10620 10620 10620 10620 10619 10619
10605 10605 10605 10605 10605 10605 10605 10604 10604 10603 10602 10602 10601 10600 10599 10598 10596 10595 10594 10593 10593 10593 10593 10592 10592 10592 10592 10593 10593 10592 10592 10592 10591 10591 10590 10590 10591 10592 10593 10594 10596 10597 10598 10599 10600 10602 10603 10604 10606 10607 10607 10608 10609 10609 10611 10612 10614 10615 10615 10616 10616 10616 10617 10617 10617 10617 10617 10616 10616 10616 10616 10614 10611 10611 10613 10613 10611 10610 10612 10614 10613 10613 10613 10613 10612
10601 10600 10599 10599 10600 10600 10599 10599 10598 10598 10597 10596 10596 10594 10593 10592 10591 10590 10589 10588 10588 10587 10587 10587 10587 10587 10587 10587 10587 10587 10587 10587 10586 10586 10586 10586 10586 10587 10588 10589 10591 10592 10593 10594 10595 10596 10598 10599 10600 10601 10602 10603 10603 10605 10606 10607 10608 10609 10609 10609 10610 10610 10611 10612 10612 10612 10612 10612 10611 10611 10610 10610 10608 10606 10606 10605 10603 10604 10606 10606 10605 10606 10606 10606 10605
10596 10595 10594 10594 10594 10594 10594 10594 10593 10593 10592 10591 10590 10589 10588 10587 10586 10584 10583 10582 10582 10582 10582 10581 10581 10581 10581 10581 10582 10582 10582 10581 10581 10581 10581 10581 10582 10583 10584 10585 10585 10587 10588 10588 10590 10591 10593 10594 10594 10596 10597 10597 10598 10600 10602 10602 10602 10603 10604 10604 10604 10605 10606 10606 10606 10606 10606 10606 10606 10606 10606 10605 10603 10602 10599 10595 10596 10599 10598 10597 10598 10599 10599 10599 10598
10590 10589 10589 10589 10589 10589 10589 10589 10588 10588 10587 10586 10584 10583 10582 10581 10580 10579 10578 10577 10576 10576 10576 10576 10576 10576 10576 10576 10576 10577 10576 10576 10576 10576 10576 10577 10577 10578 10579 10580 10580 10581 10582 10583 10585 10586 10587 10588 10589 10591 10591 10592 10593 10595 10596 10597 10597 10598 10598 10598 10599 10600 10600 10601 10601 10600 10600 10601 10601 10601 10601 10599 10597 10596 10592 10587 10588 10592 10590 10589 10590 10590 10591 10591 10590
10585 10584 10583 10583 10584 10583 10583 10583 10583 10582 10581 10580 10579 10578 10576 10575 10574 10573 10572 10572 10571 10571 10571 10570 10570 10570 10570 10570 10571 10570 10571 10571 10571 10571 10571 10572 10572 10573 10574 10575 10575 10576 10577 10578 10580 10581 10582 10583 10584 10585 10586 10587 10588 10589 10590 10591 10592 10593 10593 10593 10594 10595 10595 10595 10595 10594 10594 10595 10595 10595 10595 10593 10591 10591 10585 10579 10580 10584 10584 10582 10582 10581 10581 10581 10581
10580 10578 10578 10578 10578 10578 10578 10578 10578 10577 10576 10575 10574 10572 10570 10569 10568 10567 10567 10566 10566 10565 10565 10565 10564 10564 10565 10565 10565 10565 10565 10565 10565 10565 10566 10566 10567 10567 10568 10569 10570 10571 10571 10573 10574 10576 10577 10578 10578 10579 10580 10582 10583 10584 10585 10585 10586 10587 10588 10587 10587 10588 10589 10589 10589 10588 10587 10588 10588 10588 10588 10586 10585 10585 10578 10572 10574 10577 10577 10576 10575 10574 10573 10571 10571
10574 10573 10572 10572 10572 10573 10573 10573 10572 10572 10571 10570 10568 10567 10565 10564 10563 10562 10561 10561 10560 10560 10560 10559 10559 10559 10560 10560 10560 10559 10559 10560 10560 10560 10560 10561 10562 10562 10562 10563 10564 10565 10566 10566 10568 10569 10571 10572 10573 10573 10574 10576 10577 10578 10578 10578 10579 10580 10581 10580 10581 10581 10580 10580 10581 10582 10581 10580 10580 10580 10580 10579 10579 10576 10571 10568 10569 10569 10569 10569 10569 10568 10567 10565 10564
10569 10568 10567 10567 10567 10567 10567 10567 10567 10567 10566 10564 10563 10561 10560 10559 10557 10557 10556 10555 10554 10554 10554 10554 10554 10554 10554 10555 10555 10554 10554 10554 10555 10555 10555 10556 10556 10556 10556 10557 10558 10559 10559 10560 10562 10563 10565 10566 10567 10568 10569 10570 10571 10571 10571 10571 10572 10573 10573 10574 10574 10574 10572 10571 10572 10574 10574 10574 10573 10573 10573 10572 10571 10568 10565 10564 10563 10561 10561 10561 10561 10561 10560 10558 10556
10563 10563 10562 10562 10561 10561 10562 10562 10561 10561 10559 10558 10557 10556 10555 10553 10552 10551 10550 10549 10549 10548 10548 10548 10548 10548 10548 10549 10550 10549 10548 10548 10549 10550 10550 10550 10550 10550 10550 10551 10552 10552 10553 10554 10556 10557 10558 10560 10562 10562 10563 10564 10565 10565 10565 10565 10566 10567 10567 10567 10567 10566 10565 10564 10564 10565 10566 10566 10566 10567 10566 10565 10563 10561 10560 10558 10554 10552 10554 10554 10553 10552 10551 10550 10549
10558 10557 10557 10556 10556 10555 10556 10556 10555 10554 10553 10552 10551 10550 10549 10548 10547 10546 10545 10544 10543 10542 10541 10542 10542 10543 10543 10543 10544 10544 10543 10543 10543 10544 10544 10544 10544 10544 10544 10544 10545 10546 10547 10548 10550 10551 10551 10553 10554 10555 10556 10557 10558 10559 10560 10560 10560 10560 10560 10560 10559 10558 10558 10558 10558 10557 10558 10558 10559 10560 10559 10557 10556 10556 10554 10550 10546 10545 10546 10547 10544 10543 10543 10542 10541
10552 10552 10551 10551 10550 10550 10549 10549 10549 10548 10547 10546 10545 10544 10544 10543 10542 10541 10539 10538 10537 10536 10535 10535 10535 10536 10537 10538 10538 10538 10538 10537 10538 10538 10538 10538 10538 10538 10538 10538 10538 10539 10540 10541 10542 10543 10544 10545 10547 10548 10549 10550 10551 10552 10552 10553 10553 10553 10553 10553 10552 10550 10550 10551 10551 10551 10551 10550 10551 10552 10550 10549 10549 10548 10545 10542 10540 10538 10538 10539 10536 10535 10535 10534 10532
10545 10545 10545 10545 10544 10544 10543 10543 10543 10542 10541 10540 10539 10538 10538 10537 10536 10535 10534 10532 10531 10530 10530 10529 10528 10529 10530 10531 10532 10532 10532 10532 10532 10532 10532 10532 10532 10532 10532 10532 10532 10532 10533 10533 10534 10535 10536 10537 10539 10541 10542 10543 10544 10545 10544 10544 10545 10546 10546 10547 10546 10545 10544 10543 10544 10544 10544 10543 10543 10543 10542 10541 10541 10539 10537 10535 10533 10530 10530 10529 10528 10527 10526 10525 10522
10539 10538 10539 10539 10538 10538 10538 10537 10537 10536 10534 10533 10533 10532 10532 10531 10530 10529 10528 10526 10525 10524 10524 10523 10522 10522 10523 10523 10525 10525 10525 10525 10525 10526 10525 10525 10526 10526 10526 10526 10526 10526 10526 10526 10527 10528 10528 10529 10531 10532 10534 10534 10535 10536 10535 10536 10537 10539 10539 10539 10539 10539 10537 10536 10536 10537 10537 10537 10536 10535 10534 10534 10533 10531 10529 10527 10525 10523 10521 10519 10518 10518 10516 10514 10511
10532 10532 10532 10532 10532 10532 10531 10531 10530 10529 10528 10527 10526 10526 10525 10525 10524 10523 10522 10520 10519 10518 10517 10516 10516 10516 10516 10516 10517 10518 10518 10518 10518 10519 10519 10519 10519 10519 10519 10519 10519 10519 10519 10519 10520 10520 10520 10521 10522 10524 10525 10526 10526 10526 10526 10527 10529 10530 10531 10532 10532 10531 10530 10529 10529 10530 10530 10529 10528 10527 10526 10526 10525 10523 10520 10517 10516 10517 10515 10511 10509 10508 10506 10504 10501
10525 10525 10526 10526 10526 10525 10525 10524 10523 10522 10521 10520 10519 10519 10518 10517 10517 10516 10515 10514 10513 10511 10510 10509 10509 10509 10509 10509 10510 10510 10511 10511 10511 10511 10512 10512 10512 10512 10512 10512 10512 10512 10512 10512 10512 10513 10513 10513 10514 10515 10516 10517 10517 10517 10518 10518 10519 10521 10523 10524 10524 10523 10523 10521 10521 10521 10521 10521 10520 10519 10518 10517 10517 10515 10511 10507 10506 10508 10507 10504 10502 10500 10498 10496 10493
10519 10519 10519 10519 10519 10519 10518 10517 10516 10515 10514 10513 10513 10512 10511 10510 10510 10509 10508 10508 10506 10505 10503 10502 10502 10502 10502 10502 10503 10503 10503 10503 10503 10504 10504 10504 10504 10504 10504 10504 10504 10505 10505 10505 10505 10505 10505 10506 10506 10506 10507 10508 10508 10508 10509 10509 10510 10511 10512 10514 10514 10514 10514 10513 10512 10512 10511 10511 10510 10509 10508 10508 10507 10506 10503 10499 10498 10499 10497 10495 10493 10491 10489 10487 10484
10513 10513 10513 10513 10512 10512 10511 10510 10509 10508 10507 10506 10506 10505 10505 10504 10503 10502 10501 10500 10499 10498 10497 10496 10496 10496 10496 10496 10496 10496 10496 10496 10496 10496 10496 10496 10496 10496 10496 10496 10496 10497 10497 10497 10497 10497 10497 10497 10498 10498 10498 10499 10499 10499 10500 10500 10502 10502 10503 10503 10504 10504 10504 10504 10503 10502 10501 10500 10500 10499 10498 10498 10497 10496 10494 10491 10489 10488 10487 10485 10483 10480 10478 10476 10474
10506 10506 10506 10506 10505 10505 10504 10503 10502 10501 10500 10500 10499 10498 10498 10497 10495 10494 10493 10493 10492 10491 10491 10490 10490 10490 10490 10489 10489 10489 10489 10489 10489 10489 10488 10488 10488 10488 10487 10488 10488 10488 10489 10489 10489 10489 10489 10488 10489 10489 10489 10490 10490 10490 10490 10491 10492 10493 10493 10493 10493 10493 10494 10493 10493 10492 10492 10491 10490 10489 10487 10486 10486 10485 10484 10482 10480 10478 10477 10475 10472 10470 10468 10466 10464
10500 10500 10499 10499 10498 10497 10497 10496 10496 10495 10494 10493 10492 10491 10491 10490 10488 10487 10486 10486 10485 10485 10484 10484 10484 10484 10483 10483 10483 10482 10482 10481 10481 10481 10481 10480 10480 10480 10479 10479 10479 10479 10479 10480 10480 10480 10480 10480 10480 10479 10480 10480 10480 10481 10481 10481 10481 10482 10482 10483 10483 10483 10483 10483 10483 10482 10482 10481 10481 10480 10478 10477 10476 10474 10473 10472 10470 10469 10467 10465 10463 10461 10459 10457 10455
10493 10493 10492 10491 10491 10490 10490 10489 10488 10488 10487 10486 10485 10484 10483 10482 10481 10480 10479 10479 10478 10478 10478 10478 10477 10477 10477 10476 10476 10475 10475 10474 10474 10473 10473 10472 10472 10471 10471 10471 10470 10470 10470 10470 10470 10470 10471 10471 10471 10470 10470 10470 10471 10471 10471 10471 10471 10471 10472 10472 10472 10472 10472 10472 10472 10472 10471 10471 10470 10470 10469 10467 10466 10464 10462 10460 10458 10457 10455 10454 10453 10452 10450 10448 10446
10486 10486 10485 10485 10484 10483 10482 10481 10481 10480 10480 10479 10478 10477 10476 10475 10474 10473 10473 10472 10472 10471 10471 10471 10470 10470 10470 10469 10469 10468 10468 10467 10466 10466 10465 10464 10463 10463 10462 10462 10462 10461 10461 10460 10460 10460 10460 10460 10461 10461 10461 10460 10460 10461 10461 10461 10461 10461 10461 10461 10461 10461 10461 10461 10461 10461 10460 10459 10459 10458 10457 10456 10455 10453 10451 10449 10447 10445 10444 10442 10441 10440 10439 10437 10436
10480 10479 10478 10477 10476 10475 10475 10474 10473 10473 10472 10472 10471 10470 10469 10468 10467 10467 10466 10466 10465 10464 10464 10463 10463 10462 10462 10461 10461 10460 10460 10459 10459 10458 10457 10456 10455 10455 10454 10453 10453 10452 10451 10451 10450 10449 10449 10449 10450 10450 10450 10450 10450 10449 10449 10450 10450 10450 10451 10451 10451 10451 10450 10450 10450 10449 10449 10448 10447 10446 10445 10444 10443 10441 10439 10437 10435 10433 10432 10430 10429 10428 10426 10425 10423
10472 10471 10470 10469 10469 10468 10468 10467 10467 10466 10465 10464 10463 10462 10462 10461 10461 10460 10460 10459 10458 10458 10457 10456 10455 10455 10454 10453 10452 10452 10451 10450 10450 10449 10448 10447 10447 10446 10445 10444 10443 10443 10442 10441 10440 10439 10438 10438 10438 10438 10438 10438 10438 10438 10438 10438 10439 10439 10440 10440 10440 10440 10439 10439 10438 10438 10437 10436 10435 10434 10433 10432 10431 10429 10427 10424 10422 10421 10420 10418 10417 10416 10414 10412 10410
10464 10463 10463 10462 10462 10462 10461 10461 10460 10459 10458 10457 10456 10455 10455 10454 10454 10453 10453 10452 10451 10450 10450 10449 10448 10447 10446 10445 10444 10443 10442 10441 10441 10440 10439 10438 10437 10436 10435 10434 10433 10432 10431 10430 10430 10429 10428 10427 10427 10427 10426 10426 10426 10427 10427 10427 10428 10428 10428 10428 10428 10428 10428 10427 10427 10426 10426 10425 10424 10423 10422 10421 10420 10418 10415 10413 10410 10408 10407 10406 10404 10403 10402 10399 10397
10457 10456 10456 10456 10455 10455 10454 10454 10453 10452 10451 10450 10449 10448 10448 10447 10447 10446 10445 10444 10444 10443 10442 10441 10440 10439 10438 10437 10436 10434 10433 10432 10431 10430 10429 10428 10427 10426 10424 10423 10422 10421 10420 10419 10419 10418 10418 10417 10417 10416 10416 10415 10415 10415 10415 10416 10416 10417 10417 10417 10416 10416 10416 10416 10415 10415 10414 10413 10412 10411 10410 10409 10408 10406 10404 10401 10398 10395 10394 10392 10391 10390 10389 10387 10384
10451 10450 10449 10449 10448 10448 10448 10447 10446 10445 10444 10443 10442 10442 10441 10440 10439 10438 10437 10437 10436 10435 10434 10433 10432 10431 10430 10428 10427 10426 10424 10423 10422 10420 10419 10418 10417 10416 10414 10413 10412 10410 10410 10409 10408 10408 10408 10407 10406 10406 10405 10405 10404 10404 10403 10404 10404 10405 10405 10405 10405 10404 10404 10404 10403 10403 10402 10401 10400 10399 10398 10396 10395 10393 10392 10389 10386 10383 10380 10378 10377 10376 10374 10373 10371
10444 10443 10442 10442 10442 10441 10441 10440 10439 10438 10437 10436 10436 10435 10434 10433 10432 10431 10430 10429 10428 10427 10426 10425 10423 10422 10421 10419 10418 10417 10415 10414 10412 10411 10410 10408 10407 10406 10405 10404 10402 10401 10400 10399 10398 10397 10397 10396 10396 10395 10395 10394 10393 10393 10392 10393 10393 10393 10393 10393 10392 10392 10392 10391 10391 10390 10389 10388 10387 10386 10385 10383 10382 10380 10379 10376 10374 10371 10367 10364 10362 10360 10359 10358 10356
10437 10436 10435 10435 10434 10434 10434 10433 10432 10431 10430 10429 10428 10428 10427 10426 10425 10423 10422 10421 10420 10419 10418 10416 10415 10414 10412 10411 10409 10408 10406 10405 10404 10402 10401 10399 10398 10397 10396 10394 10393 10392 10390 10389 10388 10387 10386 10386 10385 10385 10384 10384 10383 10382 10382 10382 10381 10381 10381 10381 10380 10379 10379 10378 10378 10377 10376 10375 10373 10372 10371 10370 10368 10366 10365 10362 10360 10357 10354 10351 10348 10345 10343 10341 10339
10431 10430 10429 10428 10427 10426 10426 10426 10425 10424 10423 10422 10421 10420 10419 10418 10417 10416 10414 10413 10412 10410 10409 10408 10406 10405 10403 10402 10401 10399 10398 10396 10395 10393 10392 10390 10389 10388 10387 10386 10384 10383 10382 10380 10379 10378 10377 10376 10375 10375 10374 10374 10373 10372 10371 10371 10370 10370 10369 10369 10368 10367 10366 10365 10365 10364 10363 10361 10360 10358 10357 10355 10353 10352 10350 10348 10345 10342 10340 10337 10334 10330 10327 10324 10322
10424 10424 10424 10422 10421 10420 10419 10418 10417 10416 10415 10414 10413 10412 10411 10410 10409 10408 10406 10404 10403 10402 10401 10399 10398 10396 10395 10394 10392 10391 10390 10388 10387 10385 10384 10382 10381 10380 10379 10378 10377 10375 10374 10372 10371 10370 10368 10367 10366 10366 10365 10364 10364 10363 10361 10360 10360 10359 10358 10358 10357 10356 10354 10353 10352 10351 10350 10348 10347 10345 10343 10341 10339 10337 10335 10332 10329 10326 10323 10321 10318 10315 10312 10309 10306
10417 10417 10417 10416 10414 10413 10412 10411 10410 10408 10407 10406 10405 10404 10403 10402 10401 10399 10398 10396 10395 10394 10392 10391 10389 10388 10387 10385 10384 10382 10381 10380 10379 10378 10377 10375 10374 10373 10371 10370 10369 10368 10366 10365 10363 10362 10361 10360 10359 10358 10357 10356 10355 10354 10353 10351 10350 10349 10348 10347 10346 10345 10343 10341 10340 10339 10337 10336 10334 10332 10330 10328 10326 10323 10321 10318 10315 10311 10308 10305 10302 10299 10296 10293 10290
10409 10409 10409 10408 10406 10405 10403 10402 10402 10401 10399 10398 10397 10396 10395 10394 10393 10391 10390 10389 10387 10386 10384 10383 10382 10380 10379 10377 10376 10375 10373 10373 10372 10371 10370 10368 10367 10366 10364 10363 10362 10360 10359 10358 10357 10355 10354 10353 10351 10350 10349 10348 10347 10346 10345 10343 10341 10340 10338 10337 10336 10334 10333 10331 10329 10327 10325 10324 10322 10320 10317 10314 10312 10310 10307 10304 10301 10298 10295 10292 10289 10285 10281 10277 10274
10401 10401 10401 10399 10398 10397 10395 10394 10394 10392 10391 10390 10389 10388 10387 10386 10385 10384 10382 10381 10379 10378 10376 10375 10374 10373 10372 10370 10369 10368 10366 10365 10364 10363 10362 10361 10360 10359 10357 10356 10355 10354 10353 10351 10350 10348 10347 10346 10344 10343 10342 10341 10339 10338 10337 10335 10333 10331 10329 10327 10326 10324 10322 10320 10318 10316 10314 10312 10310 10308 10305 10302 10299 10296 10293 10290 10287 10284 10281 10278 10275 10272 10268 10264 10260
10394 10392 10392 10391 10390 10389 10388 10387 10386 10385 10383 10382 10381 10380 10379 10377 10376 10376 10375 10374 10372 10370 10369 10368 10367 10366 10365 10364 10362 10361 10359 10358 10357 10356 10355 10354 10353 10352 10351 10350 10349 10348 10346 10345 10344 10342 10340 10339 10337 10336 10335 10334 10332 10330 10329 10327 10325 10323 10321 10319 10317 10315 10313 10311 10309 10306 10303 10301 10299 10296 10294 10291 10288 10284 10281 10277 10273 10270 10267 10265 10262 10259 10254 10250 10246
10386 10385 10384 10383 10382 10381 10380 10380 10378 10377 10375 10375 10374 10373 10371 10370 10369 10368 10367 10367 10365 10364 10363 10362 10361 10360 10358 10357 10356 10355 10353 10352 10351 10350 10349 10348 10347 10346 10345 10344 10343 10342 10340 10339 10338 10337 10335 10333 10331 10329 10328 10327 10326 10324 10322 10320 10317 10315 10313 10311 10309 10306 10304 10302 10300 10297 10294 10292 10289 10286 10283 10280 10277 10274 10270 10266 10262 10258 10254 10252 10250 10247 10242 10238 10233
10380 10378 10377 10375 10374 10373 10373 10372 10370 10369 10367 10366 10365 10364 10363 10362 10362 10361 10360 10359 10359 10357 10356 10356 10355 10353 10352 10351 10351 10350 10348 10347 10346 10345 10344 10343 10342 10341 10340 10339 10338 10337 10335 10334 10332 10331 10329 10327 10325 10323 10321 10319 10318 10316 10314 10312 10310 10308 10305 10303 10301 10298 10296 10293 10291 10288 10285 10282 10279 10276 10273 10270 10267 10263 10260 10256 10253 10248 10243 10240 10237 10235 10232 10227 10223
10373 10371 10370 10368 10367 10366 10365 10364 10363 10362 10360 10359 10358 10357 10355 10354 10354 10354 10353 10352 10351 10350 10349 10349 10348 10347 10346 10345 10345 10344 10343 10342 10341 10340 10339 10338 10337 10337 10336 10334 10333 10332 10330 10328 10327 10325 10323 10321 10319 10317 10315 10312 10310 10308 10306 10304 10302 10300 10297 10295 10292 10290 10287 10285 10282 10279 10276 10273 10270 10267 10263 10259 10256 10253 10250 10246 10243 10239 10234 10229 10225 10223 10220 10217 10213
10366 10364 10363 10361 10359 10358 10357 10356 10355 10355 10354 10353 10352 10351 10349 10348 10347 10347 10346 10346 10345 10344 10343 10343 10342 10341 10340 10339 10339 10338 10338 10337 10336 10335 10334 10333 10333 10332 10330 10329 10328 10326 10324 10322 10320 10318 10316 10314 10312 10311 10308 10306 10303 10300 10298 10296 10294 10291 10289 10287 10284 10281 10278 10276 10273 10270 10267 10264 10261 10257 10253 10250 10246 10243 10239 10236 10232 10228 10224 10220 10215 10211 10208 10205 10202
10358 10357 10355 10354 10353 10352 10350 10349 10348 10347 10347 10346 10346 10345 10344 10343 10342 10341 10341 10340 10339 10338 10338 10338 10337 10337 10336 10335 10334 10333 10332 10332 10331 10330 10329 10328 10327 10326 10325 10323 10322 10320 10318 10316 10314 10311 10309 10307 10305 10303 10301 10299 10296 10294 10291 10288 10286 10283 10281 10278 10275 10272 10270 10267 10264 10261 10258 10255 10252 10248 10245 10241 10237 10233 10230 10226 10221 10217 10213 10210 10206 10201 10197 10194 10191
10350 10349 10348 10347 10346 10345 10344 10343 10342 10341 10340 10340 10339 10339 10338 10337 10337 10336 10336 10335 10335 10333 10333 10332 10332 10332 10331 10330 10330 10329 10328 10327 10326 10325 10324 10323 10322 10321 10319 10317 10316 10314 10312 10310 10308 10305 10303 10300 10298 10296 10294 10292 10289 10287 10284 10281 10278 10275 10273 10270 10267 10264 10261 10258 10255 10253 10250 10246 10243 10240 10236 10232 10229 10225 10221 10217 10213 10208 10204 10200 10196 10192 10188 10184 10181
10343 10342 10341 10340 10339 10338 10338 10337 10336 10335 10335 10334 10334 10333 10333 10332 10332 10331 10331 10331 10330 10329 10328 10328 10327 10326 10326 10325 10324 10324 10323 10323 10322 10321 10319 10318 10316 10315 10313 10312 10310 10308 10306 10304 10302 10300 10297 10295 10292 10289 10287 10285 10282 10280 10277 10274 10271 10268 10265 10262 10259 10256 10253 10250 10247 10244 10241 10238 10235 10232 10228 10224 10220 10216 10212 10208 10204 10200 10195 10191 10187 10183 10178 10174 10171
10336 10335 10335 10334 10333 10333 10332 10331 10330 10330 10329 10329 10328 10328 10328 10327 10327 10327 10327 10326 10325 10325 10324 10323 10322 10322 10321 10320 10319 10319 10318 10317 10316 10315 10314 10313 10311 10309 10308 10306 10304 10302 10300 10298 10296 10294 10291 10289 10286 10283 10280 10278 10275 10273 10270 10267 10264 10261 10258 10254 10251 10248 10245 10242 10239 10236 10233 10230 10227 10223 10220 10216 10212 10208 10204 10200 10195 10191 10187 10183 10178 10174 10170 10165 10161
10330 10329 10329 10328 10328 10327 10327 10327 10326 10325 10325 10324 10324 10323 10323 10322 10322 10322 10322 10321 10321 10320 10319 10318 10318 10317 10316 10315 10314 10314 10313 10311 10310 10309 10308 10307 10305 10303 10302 10300 10298 10296 10294 10292 10289 10287 10285 10282 10280 10277 10274 10271 10268 10265 10262 10259 10256 10254 10251 10247 10244 10241 10238 10235 10232 10229 10226 10222 10218 10215 10211 10207 10203 10199 10195 10191 10187 10183 10178 10174 10170 10166 10162 10157 10153
10324 10324 10323 10323 10323 10322 10322 10322 10321 10321 10321 10321 10320 10320 10319 10318 10317 10317 10316 10316 10316 10315 10314 10313 10312 10312 10311 10310 10309 10307 10306 10305 10304 10302 10301 10299 10298 10296 10294 10293 10291 10289 10287 10284 10282 10280 10277 10275 10273 10270 10267 10264 10261 10258 10255 10252 10249 10246 10243 10240 10237 10234 10232 10229 10225 10222 10219 10215 10211 10207 10203 10199 10195 10191 10187 10183 10179 10175 10170 10166 10162 10157 10153 10149 10145